Regional Weather Roundup
Issued by NWS

Home | Current Version | Previous Version | Text Only | Print | Product List | Glossary Off
Versions: 1 2 3 4 5 6 7 8 9 10 11 12 13 14 15 16 17 18 19 20 21 22 23 24 25 26 27 28 29 30 31 32 33 34 35 36 37 38 39 40 41 42 43 44 45 46 47 48 49 50

175
ASUS43 KMKX 241611
RWRWI

WISCONSIN REGIONAL WEATHER ROUNDUP
NATIONAL WEATHER SERVICE MILWAUKEE/SULLIVAN WI
1100 AM CDT THU MAY 24 2018

NOTE: "FAIR" INDICATES FEW OR NO CLOUDS BELOW 12,000 FEET WITH NO
SIGNIFICANT WEATHER AND/OR OBSTRUCTIONS TO VISIBILITY.

WIZ001-002-006>008-014>016-023>028-241700-
NORTHWEST WISCONSIN

CITY           SKY/WX    TMP DP  RH WIND       PRES   REMARKS
SUPERIOR ARPT  CLOUDY    52  52 100 E3        30.05R FOG
ASHLAND        FAIR      70  68  93 S8        30.06F
HAYWARD        FAIR      69  66  90 SE6       30.08F
SIREN          FAIR      75  65  70 S8        30.04F
CUMBERLAND     FAIR      73  63  68 SE6       30.08R
RICE LAKE      FAIR      76  63  63 NE3       30.08F
CHETEK         FAIR      77  65  66 CALM      30.06F
LADYSMITH      FAIR      74  63  69 CALM      30.11F
EAU CLAIRE     FAIR      82  65  56 SW12      30.05F HX  84
MENOMONIE      FAIR      82  65  56 S8        30.05F HX  83
NEW RICHMOND   FAIR      82  63  51 SW13      30.04S HX  83
OSCEOLA        FAIR      80  65  61 SE3       30.05F HX  82
$$

WIZ003>005-009-010-017-018-241700-
NORTH CENTRAL WISCONSIN

CITY           SKY/WX    TMP DP  RH WIND       PRES   REMARKS
MANITOWISH WTR LGT RAIN  65  65 100 CALM      30.13S VSB 3/4
ARBOR VITAE    FAIR      72  64  75 SE5       30.13F
WOODRUFF       FAIR      72  64  75 SE5       30.13F
RHINELANDER    FAIR      77  62  59 SW3       30.14F
EAGLE RIVER    CLOUDY    67  64  91 CALM      30.14F
LAND O LAKES   DRIZZLE   65  64  96 CALM      30.16F
PHILLIPS       CLOUDY    72  64  74 CALM      30.11F
TOMAHAWK       PTSUNNY   75  62  64 CALM      30.12F
MEDFORD        FAIR      77  62  59 S10G16    30.11F
MERRILL        FAIR      78  64  60 SW7       30.12F HX  80
$$

WIZ029-030-035-036-043>047-241700-
CENTRAL WISCONSIN

CITY           SKY/WX    TMP DP  RH WIND       PRES   REMARKS
WAUSAU         FAIR      79  62  56 SW12      30.10F HX  80
MOSINEE        PTSUNNY   75  63  64 SW10      30.14F
MARSHFIELD     FAIR      78  63  59 S8        30.11F HX  80
STEVENS POINT  FAIR      78  60  54 SW10      30.13F
WAUPACA        FAIR      82  56  41 S8        30.13F HX  81
WAUTOMA        FAIR      80  58  46 S7        30.13F HX  80
WISC RAPIDS    FAIR      79  60  52 S9        30.13F HX  80
CAMP DOUGLAS   PTSUNNY   79  63  57 S8        30.11F HX  80
$$

WIZ011>013-019>022-031-037>040-048>050-241700-
NORTHEAST WISCONSIN

CITY           SKY/WX    TMP DP  RH WIND       PRES   REMARKS
ANTIGO         FAIR      77  62  58 SW13      30.15S
SHAWANO        PTSUNNY   79  60  51 S6        30.13F HX  80
OCONTO         PTSUNNY   77  56  49 SE7       30.13S
STURGEON BAY   FAIR      79  57  46 S6        30.15F HX  80
GREEN BAY      FAIR      78  58  49 SW12G17   30.14F
MANITOWOC      FAIR      74  54  49 S10       30.16F
APPLETON       MOSUNNY   77  52  41 SW13      30.14F
CLINTONVILLE   FAIR      79  56  44 S9        30.13F HX  80
OSHKOSH        FAIR      78  57  48 SW10      30.14F
$$

WIZ032>034-041-042-053>061-241700-
SOUTHWEST WISCONSIN

CITY           SKY/WX    TMP DP  RH WIND       PRES   REMARKS
LA CROSSE      FAIR      80  63  55 S12       30.09S HX  81
SPARTA         FAIR      79  63  57 S6        30.11F HX  81
VIROQUA        FAIR      79  64  60 S9        30.13F HX  81
BOSCOBEL       FAIR      83  64  52 SW6       30.11F HX  84
PRAIRIE DU CHI FAIR      79  61  52 S3        30.11S HX  80
PLATTEVILLE    FAIR      78  63  60 S6        30.15S HX  80
$$

WIZ056-057-062-063-064-067-068-241700-
SOUTH CENTRAL WISCONSIN

CITY           SKY/WX    TMP DP  RH WIND       PRES   REMARKS
REEDSBURG      FAIR      78  62  57 S9        30.13F HX  80
BARABOO/DELLS  FAIR      79  55  43 S7        30.14S
LONE ROCK      FAIR      81  62  52 MISG      30.12F HX  82
MINERAL POINT  FAIR      79  63  57 S6        30.15F HX  80
MADISON        PTSUNNY   77  57  50 S8        30.14F
MIDDLETON      FAIR      79  58  48 S6        30.16S HX  80
WATERTOWN      FAIR      78  57  47 S7        30.16F
MONROE         FAIR      77  55  47 S6        30.15F
JANESVILLE     MOSUNNY   81  55  41 S9        30.16F HX  80
$$

WIZ051-052-058>065-066-070>072-241700-
SOUTHEAST WISCONSIN

CITY           SKY/WX    TMP DP  RH WIND       PRES   REMARKS
MILWAUKEE      FAIR      79  57  46 SW8       30.17F HX  80
WAUKESHA       SUNNY     75  54  46 SW6       30.18F
MILWAUKEE/TIMM SUNNY     79  48  34 SW9       30.18S
RACINE         FAIR      73  57  57 SE6       30.19F
BURLINGTON     FAIR      80  55  42 SW10      30.17S HX  80
KENOSHA        FAIR      80  57  45 VRB3      30.17F HX  80
FOND DU LAC    FAIR      78  55  44 S14       30.15F
SHEBOYGAN      FAIR      77  59  53 S8        30.16F
WEST BEND      FAIR      79  52  38 SW10      30.16F
JUNEAU         FAIR      76  58  52 S8        30.16F
$$

LSZ147-162-241700-
LAKE SUPERIOR

STATION/POSITION TIME  TEMP    WIND        PRES    WAVE
                       AIR SEA DIR/SP/G            HT/PER
                 (UTC) (F)     (DEG/KT/KT) (MB)    (FT/S)
W MID LAKE BUOY  1550   42 36  340/  4/  4 1018.7F   0
DEVILS ISLAND    1600   46     360/  4/  5 1018.6S
SAXON HARBOR     1540   68     200/  6/  8 1016.9F
$$

LMZ867-665-643>646-241700-
LAKE MICHIGAN

STATION/POSITION TIME  TEMP    WIND        PRES    WAVE
                       AIR SEA DIR/SP/G            HT/PER
                 (UTC) (F)     (DEG/KT/KT) (MB)    (FT/S)
N MID LAKE BUOY  1550   42 38  190/ 10/ 12 1021.2F   1/ 3
NORTHPORT PIER   1540   62     160/  3/  4 1020.7S
KEWAUNEE LAKESHO 1542   53     170/ 10/ 11 1020.5F
SHEBOYGAN LAKESH 1600   51     160/ 15/ 15 1021.3S
PORT WASHINGTON  1530   58     130/  2/  4 1022.7S
ATWATER BUOY     1507   54 50  150/  4/  6 1022.0    0
MILWAUKEE LAKESH 1550   56      80/  3/  3   N/A
S MID LAKE BUOY  1550   49 40  140/  6/  6 1023.1F   0
KENOSHA   LAKESH 1600   55                 1021.7
$$

TC  - TEMPERATURE IN CELSIUS
VSB - VISIBILITY IN STATUTE MILES
WCI - WIND CHILL INDEX
HX  - HEAT INDEX





USA.gov is the U.S. government's official web portal to all federal, state and local government web resources and services.